Regional Weather Roundup
Issued by NWS Glasgow, MT

Home | Current Version | Previous Version | Text Only | Print | Product List | Glossary On
Versions: 1 2 3 4 5 6 7 8 9 10 11 12 13 14 15 16 17 18 19 20 21 22 23 24 25 26 27
000
ASUS45 KGGW 242315
RWRGGW
HOURLY REGIONAL WEATHER ROUNDUP FOR NORTHEAST MONTANA
NATIONAL WEATHER SERVICE GLASGOW MONTANA
500 PM MDT TUE MAY 24 2016

NOTE: "FAIR" INDICATES FEW OR NO CLOUDS BELOW 12,000 FEET WITH NO
SIGNIFICANT WEATHER AND/OR OBSTRUCTIONS TO VISISBILITY.

NORTHEAST MONTANA


CITY           SKY/WX    TMP DP  RH WIND       PRES   REMARKS
GLASGOW        PTSUNNY   62  42  47 NW8       29.86F
PLENTYWOOD       N/A     65  37  35 SW12G20     N/A
WOLF POINT     CLOUDY    68  41  37 W12       29.87S
JORDAN           N/A     62  39  42 W5        29.88S
WINNETT          N/A     55  43  63 NW6         N/A
SIDNEY         SUNNY     68  39  34 SW12      29.86F
GLENDIVE       MOSUNNY   70  41  35 W12       29.89S
OPHEIM           N/A     54  41  62 S9        29.73F

FORT PECK REPORTS


CITY           SKY/WX    TMP DP  RH WIND       PRES   REMARKS
FORT PECK        N/A     64  44  48 SE6         N/A
THE PINES        N/A     64  33  31 SW8         N/A

SOUTHEAST MONTANA


CITY           SKY/WX    TMP DP  RH WIND       PRES   REMARKS
BILLINGS       LGT RAIN  61  41  47 NW8       29.88S
MILES CITY     MOSUNNY   71  41  33 NE8       29.84F
BAKER          MOSUNNY   71  38  29 E7        29.84F
LIVINGSTON     CLOUDY    59  36  42 CALM      29.87S

CENTRAL MONTANA


CITY           SKY/WX    TMP DP  RH WIND       PRES   REMARKS
HAVRE          MOSUNNY   58  42  55 SW5       29.87F
LEWISTOWN      CLOUDY    55  41  59 CALM      29.90S
GREAT FALLS    PTSUNNY   61  34  36 N7        29.87S
CUT BANK       PTSUNNY   56  39  53 NW6       29.87S
HELENA         CLOUDY    59  40  49 N6        29.88S
BUTTE          CLOUDY    52  34  50 NW9       29.91S
BOZEMAN        MOSUNNY   58  39  49 CALM      29.89F

WESTERN MONTANA


CITY           SKY/WX    TMP DP  RH WIND       PRES   REMARKS
MISSOULA       PTSUNNY   59  41  51 N9        29.92S
KALISPELL      NOT AVBL

NORTH DAKOTA


CITY           SKY/WX    TMP DP  RH WIND       PRES   REMARKS
WILLISTON      PTSUNNY   70  37  29 SW13      29.87S
DICKINSON      CLOUDY    67  40  37 VRB3      29.85F
MINOT          MOSUNNY   78  39  24 SW9       29.86F
BISMARCK       MOSUNNY   77  40  26 SE7       29.86F

SOUTHERN SASKATCHEWAN


CITY           SKY/WX    TMP DP  RH WIND       PRES   REMARKS
REGINA         PTSUNNY   61  41  48 SW15      29.82F
MOOSE JAW      PTSUNNY   61  46  59 S15       29.83S
ESTEVAN        PTSUNNY   70  37  30 SW15G22   29.85S
SWIFT CURRENT  CLOUDY    55  48  76 W10       29.81S





USA.gov is the U.S. government's official web portal to all federal, state and local government web resources and services.